, MO

(GMT )
Kansas City

Weather History for KMKC - February, 2014

Change the Weather History Date:

Friday, February 14, 2014

  Actual Average Record
Temperature  
Mean Temperature 31 °F -  
Max Temperature 41 °F 44 °F 66 °F (2005)
Min Temperature 21 °F 27 °F 7 °F (2007)
Degree Days  
Heating Degree Days 34    
Moisture  
Dew Point 22 °F    
Average Humidity 70    
Maximum Humidity 82    
Minimum Humidity 60    
Precipitation  
Precipitation 0.00 in - - ()
Sea Level Pressure  
Sea Level Pressure 29.92 in    
Wind  
Wind Speed 8 mph (NW)    
Max Wind Speed 16 mph    
Max Gust Speed 24 mph    
Visibility 10 miles    
Events      
Averages and records for this station are not official NWS values.
T = Trace of Precipitation, MM = Missing Value Source: NWS Daily Summary

Daily Weather History Graph

Daily Weather History Graph

Search for Another Location

Airport or City:

Trip Planner

Search our weather history database for the weather conditions in past years. The results will help you decide how hot, cold, wet, or windy it might be!

Date:

Astronomy

Feb. 14, 2014 Rise Set
Actual Time 7:11 AM CST 5:54 PM CST
Civil Twilight 6:43 AM CST 6:21 PM CST
Nautical Twilight 6:12 AM CST 6:53 PM CST
Astronomical Twilight 5:41 AM CST 7:24 PM CST
Moon 5:58 PM CST (2/14) 6:38 AM CST (2/14)
Length of Visible Light 11h 38m
Length of Day
10h 43m
Full, 100% of the Moon is Illuminated
Feb 14
Full
Feb 14
Full
Feb 22
Last Quarter
Mar 1
New
Mar 8
First Quarter

Hourly Weather History & Observations

Time (CST) Temp. Windchill Dew Point Humidity Pressure Visibility Wind Dir Wind Speed Gust Speed Precip Events Conditions
12:54 AM 33.1 °F 30.0 °F 28.0 °F 82% 29.73 in 9.0 mi NNW 3.5 mph - N/A   Overcast
1:54 AM 35.1 °F - 30.0 °F 82% 29.70 in 7.0 mi Calm Calm - 0.00 in   Overcast
2:54 AM 35.1 °F 31.0 °F 30.0 °F 82% 29.64 in 8.0 mi South 4.6 mph - N/A   Overcast
3:54 AM 37.9 °F 31.5 °F 30.0 °F 73% 29.58 in 10.0 mi SSW 9.2 mph - N/A   Clear
4:54 AM 41.0 °F 33.9 °F 30.9 °F 67% 29.57 in 10.0 mi SW 12.7 mph - N/A   Clear
5:54 AM 41.0 °F 35.2 °F 30.9 °F 67% 29.59 in 10.0 mi SW 9.2 mph - N/A   Partly Cloudy
6:54 AM 39.9 °F 33.9 °F 30.0 °F 68% 29.66 in 10.0 mi WNW 9.2 mph 20.7 mph N/A   Clear
7:54 AM 34.0 °F 25.5 °F 28.0 °F 79% 29.71 in 6.0 mi North 11.5 mph 19.6 mph N/A   Haze
8:54 AM 30.9 °F 21.7 °F 23.0 °F 72% 29.80 in 10.0 mi NNW 11.5 mph - N/A   Mostly Cloudy
9:41 AM 30.9 °F 19.8 °F 24.1 °F 76% 29.81 in 10.0 mi North 16.1 mph 20.7 mph N/A   Overcast
9:54 AM 30.9 °F 21.7 °F 24.1 °F 76% 29.84 in 10.0 mi North 11.5 mph - N/A   Overcast
10:54 AM 28.9 °F 19.2 °F 21.9 °F 75% 29.91 in 10.0 mi North 11.5 mph - N/A   Overcast
11:54 AM 28.0 °F 18.1 °F 21.0 °F 75% 29.96 in 10.0 mi NNW 11.5 mph - N/A   Overcast
12:04 PM 28.0 °F 18.1 °F 19.9 °F 72% 29.94 in 10.0 mi NNW 11.5 mph - N/A   Overcast
12:54 PM 28.0 °F 18.6 °F 19.9 °F 72% 29.99 in 10.0 mi North 10.4 mph 19.6 mph N/A   Overcast
1:54 PM 30.0 °F 19.1 °F 19.0 °F 64% 29.97 in 10.0 mi NNW 15.0 mph 24.2 mph N/A   Overcast
2:04 PM 30.9 °F 20.2 °F 19.0 °F 61% 29.96 in 10.0 mi North 15.0 mph 21.9 mph N/A   Mostly Cloudy
2:19 PM 30.0 °F 19.5 °F 19.0 °F 64% 29.96 in 10.0 mi NNW 13.8 mph - N/A   Mostly Cloudy
2:54 PM 30.0 °F 19.5 °F 18.0 °F 61% 30.00 in 10.0 mi North 13.8 mph - N/A   Overcast
3:24 PM 28.9 °F 17.3 °F 18.0 °F 64% 30.00 in 10.0 mi NNW 16.1 mph 20.7 mph N/A   Scattered Clouds
3:51 PM 30.2 °F 18.9 °F 17.6 °F 60% 30.02 in 10.0 mi NW 16.1 mph 21.9 mph N/A   Mostly Cloudy
3:54 PM 30.0 °F 18.7 °F 18.0 °F 61% 30.04 in 10.0 mi NW 16.1 mph 21.9 mph N/A   Mostly Cloudy
4:52 PM 28.4 °F 19.7 °F 17.6 °F 64% 30.04 in 10.0 mi NNW 9.2 mph 18.4 mph N/A   Scattered Clouds
4:54 PM 28.9 °F 18.6 °F 18.0 °F 64% 30.05 in 10.0 mi NNW 12.7 mph 18.4 mph N/A   Scattered Clouds
5:54 PM 27.0 °F 18.7 °F 17.1 °F 66% 30.09 in 10.0 mi NNW 8.1 mph - N/A   Clear
6:54 PM 27.0 °F 20.5 °F 16.0 °F 63% 30.12 in 10.0 mi NNW 5.8 mph - N/A   Clear
7:54 PM 26.1 °F - 16.0 °F 66% 30.12 in 10.0 mi Calm Calm - N/A   Clear
8:54 PM 24.1 °F 19.7 °F 16.0 °F 71% 30.14 in 10.0 mi WSW 3.5 mph - N/A   Clear
9:54 PM 24.1 °F - 16.0 °F 71% 30.16 in 10.0 mi Calm Calm - N/A   Clear
10:54 PM 21.0 °F - 15.1 °F 78% 30.16 in 8.0 mi Calm Calm - N/A   Clear
11:54 PM 21.9 °F - 16.0 °F 78% 30.16 in 7.0 mi Calm Calm - N/A   Clear